Track CARTOSAT 2C now! 10-day predictions CARTOSAT 2C is classified as:
1 41599U 16040A 23265.16860857 .00007068 00000-0 33836-3 0 9995 2 41599 97.4261 323.8826 0013624 14.9412 345.2222 15.19183248402039